Regional Weather Roundup
Issued by NWS

Home | Current Version | Previous Version | Text Only | Print | Product List | Glossary On
Versions: 1 2 3 4 5 6 7 8 9 10 11 12 13 14 15 16 17 18 19 20 21 22 23 24 25 26 27 28 29 30 31 32 33 34 35 36 37 38 39 40 41 42 43 44 45 46 47 48 49 50
000
ASUS43 KMPX 300501
RWRMN
WEATHER ROUNDUP FOR MINNESOTA
NATIONAL WEATHER SERVICE TWIN CITIES/CHANHASSEN MN
1200 AM CDT THU JUN 30 2016


NOTE: "FAIR" INDICATES FEW OR NO CLOUDS BELOW 12,000 FEET WITH NO
SIGNIFICANT WEATHER AND/OR OBSTRUCTIONS TO VISIBILITY. N/A MEANS
CURRENT SKY AND/OR WEATHER CONDITIONS ARE NOT AVAILABLE.

MNZ060>063-068>070-300600-
   Twin Cities Metro

CITY           SKY/WX    TMP DP  RH WIND       PRES   REMARKS
TWIN CITIES    PTCLDY    69  54  58 S7        30.00F
ST PAUL        CLEAR     67  57  70 SE3       30.00F
CRYSTAL        CLEAR     62  52  69 SE3       29.99F
BLAINE         CLEAR     64  55  72 S3        30.00S
LAKEVILLE      CLEAR     63  55  77 CALM      30.02R
EDEN PRAIRIE   PTCLDY    68  54  60 SE6       30.00S
LAKEVILLE      CLEAR     63  55  77 CALM      30.02R
SOUTH ST PAUL  CLEAR     67  56  67 CALM      30.00S
LAKE ELMO      FAIR      61  55  82 CALM      30.02S
$$
MNZ001>005-007-008-013>017-022>024-027-028-300600-
   Northwest Minnesota

CITY           SKY/WX    TMP DP  RH WIND       PRES   REMARKS
BEMIDJI        MOCLDY    61  57  85 CALM      30.00S
HALLOCK        CLOUDY    63  61  94 N10       30.01S
ROSEAU         CLOUDY    59  54  82 NW5       30.00S
WARROAD        CLOUDY    63  57  82 W7        30.00S
THIEF RVR FALL MOCLDY    62  59  90 W7        30.02S
CROOKSTON      MOCLDY    63  59  88 CALM      30.01F
FOSSTON        CLOUDY    61  57  88 CALM      30.01S
DETROIT LAKES  CLEAR     63  57  82 CALM      30.01S
MOORHEAD       CLEAR     61  57  88 N5        30.00S
PARK RAPIDS    CLEAR     61  55  81 NW3       29.99F
MAHNOMEN       CLOUDY    61  59  94 W5        30.00R
$$
MNZ006-009>011-018-025>026-300600-
   North Central Minnesota

CITY           SKY/WX    TMP DP  RH WIND       PRES   REMARKS
BAUDETTE       CLOUDY    62  60  93 NW7       29.97S
FLAG ISLAND    PTCLDY    66  57  72 N10       29.98R
INTL FALLS     CLOUDY    61  59  93 W5        29.94F
WASKISH        CLOUDY    66  61  82 W7        29.98S
BIG FORK       CLOUDY    59  57  94 CALM      29.98S
LONGVILLE      MOCLDY    63  57  82 N3        29.98S
GRAND RAPIDS   RAIN      61  59  93 E5        30.01S FOG
CRANE LAKE     CLEAR     54  54 100 CALM      29.95F FOG
ORR            MOCLDY    57  55  94 CALM      29.93F
COOK           CLOUDY    57  55  94 CALM      29.96F
WALKER         CLOUDY    58  57  99 W5        29.99R
$$
MNZ012-019>021-037-300600-
   Northeast Minnesota

CITY           SKY/WX    TMP DP  RH WIND       PRES   REMARKS
DULUTH         PTCLDY    62  55  77 S5        29.97F
ELY            PTCLDY    59  57  94 SW5       29.95F
HIBBING        CLOUDY    59  58  96 S5        29.97F
EVELETH        LGT RAIN  60  59  96 CALM      29.99F
DULUTH HARBOR  CLEAR     61  57  88 N8        29.97S
TWO HARBORS    CLOUDY    63  57  82 CALM      29.96R
SILVER BAY     RAIN      63  59  88 CALM      29.95S
GRAND MARAIS     N/A     49  49 100 SW6       29.92S
G MARAIS ARPRT MOCLDY    57  52  82 W6        29.95F
$$
MNZ029>031-032-039>041-046>048-054>057-064-300600-
   West Central Minnesota

CITY           SKY/WX    TMP DP  RH WIND       PRES   REMARKS
FERGUS FALLS   MOCLDY    66  55  68 CALM      29.95S
WHEATON        CLOUDY    70  59  68 SW5       30.01R
MORRIS         CLOUDY    64  57  77 S6        29.99S
ALEXANDRIA     PTCLDY    65  53  65 S5        30.02S
ELBOW LAKE     FAIR      67  55  65 E6        30.00R
WADENA         CLEAR     61  54  77 CALM      29.99F
GLENWOOD       PTCLDY    64  55  72 S3        30.02S
APPLETON       CLOUDY    68  55  64 E5        29.99S
BENSON         CLOUDY    66  54  63 S6        30.00S
ORTONVILLE     CLOUDY    68  55  64 E6        29.99S
MADISON        PTCLDY    70  55  60 SE8       29.99F
WILLMAR        FAIR      66  57  72 SE5       30.02S
$$
MNZ033>034-036-042>043-049>051-058-059-300600-
   Central Minnesota

CITY           SKY/WX    TMP DP  RH WIND       PRES   REMARKS
ST CLOUD       CLEAR     59  56  89 CALM      29.99F
SAUK CENTRE    FAIR      60  55  83 CALM      30.01R
PAYNESVILLE    CLOUDY    68  54  59 SE7       30.01S
AITKIN         CLEAR     61  54  77 CALM      29.96F
PINE RIVER     PTCLDY    61  55  82 CALM      30.01F
BRAINERD       CLEAR     60  55  83 SW5       29.98F
STAPLES        CLEAR     61  54  77 N8        29.99S
LONG PRAIRIE   FAIR      59  57  94 CALM      30.01S
LITTLE FALLS   CLEAR     55  52  88 CALM      30.00S
LITCHFIELD     CLOUDY    66  55  68 CALM      30.01F
BUFFALO        CLEAR     64  53  68 CALM      30.01S
MAPLE LAKE     CLOUDY    61  56  85 CALM      30.01F
HUTCHINSON     PTCLDY    65  58  78 CALM      30.02S
$$
MNZ037-044-045-052-053-300600-
   East Central Minnesota

CITY           SKY/WX    TMP DP  RH WIND       PRES   REMARKS
PRINCETON      CLEAR     59  55  88 CALM      29.99F
MORA           CLEAR     55  54  94 CALM      30.01S
CAMBRIDGE      CLEAR     64  54  68 CALM      29.98S
RUSH CITY      MOCLDY    64  55  73 S5        29.99F
MOOSE LAKE     CLEAR     55  54  94 SW3       29.96S
HINCKLEY       FAIR      57  55  94 CALM      29.99S
CLOQUET        CLEAR     61  54  77 CALM      29.98S
MCGREGOR       CLEAR     63  57  82 CALM      29.98S
$$
MNZ071>073-080-081-089-090-097-098-300600-
   Southwest Minnesota

CITY           SKY/WX    TMP DP  RH WIND       PRES   REMARKS
MONTEVIDEO     CLOUDY    68  57  68 S6        30.01S
GRANITE FALLS  PTCLDY    72  58  60 E5        30.01S
CANBY          CLOUDY    68  62  80 CALM      30.00F
MARSHALL       MOCLDY    68  62  81 S8        29.99F
REDWOOD FALLS  MOCLDY    70  61  73 S6        30.00S
OLIVIA         MOCLDY    70  55  60 SE3       30.00S
PIPESTONE      CLOUDY    68  61  77 SE5       30.01F
WORTHINGTON    PTCLDY    68  66  93 S6        30.03F
JACKSON        CLOUDY    70  61  73 S5        30.03F
TRACY          CLOUDY    68  61  77 S9        30.01S
SLAYTON        PTCLDY    63  60  93 SE6       30.03S
$$
MNZ065>067-074>077-082>085-091>093-300600-
   South Central Minnesota

CITY           SKY/WX    TMP DP  RH WIND       PRES   REMARKS
MANKATO        PTCLDY    66  59  77 S6        30.02S
NEW ULM        PTCLDY    70  63  78 S7        30.00F
ST JAMES       CLEAR     64  57  77 S6        30.02F
FAIRMONT       CLOUDY    68  61  77 S6        30.02F
GLENCOE        CLOUDY    66  59  79 CALM      30.00F
FARIBAULT      PTCLDY    66  61  82 S5        30.02S
OWATONNA       MOCLDY    68  61  77 S5        30.03R
WASECA         PTCLDY    63  57  82 S5        30.04S
ALBERT LEA     CLEAR     68  61  77 S7        30.03F
$$
MNZ078>079-086>088-094>096-300600-
   Southeast Minnesota

CITY           SKY/WX    TMP DP  RH WIND       PRES   REMARKS
ROCHESTER      CLEAR     62  60  93 S7        30.04F
RED WING       CLEAR     59  55  88 CALM      29.99F
STANTON        CLEAR     65  55  70 SW3       30.00S
DODGE CENTER   CLEAR     64  59  82 SW9       30.03F
WINONA         PTCLDY    61  59  94 CALM      30.02F
AUSTIN         CLEAR     63  57  82 S5        30.04S
PRESTON        CLEAR     63  58  84 SW7       30.05F
$$
ABBREVIATIONS USED IN REMARKS
   TC - TEMPERATURES IN CELSIUS
  WCI - WIND CHILL INDEX
   HX - HEAT INDEX
  VSB - VISIBILITY
$$




USA.gov is the U.S. government's official web portal to all federal, state and local government web resources and services.